Location: Newark
(37.9800°N, 91.3000°W)
Time: 18:05:39
(UTC+00:00)

ISS - Pass Details

Date: 26 October 2019
Orbit: 412 x 421 km, 51.6° (Epoch: 13 November)

Event Time Altitude Azimuth Distance (km) Brightness Sun altitude
Exits shadow 10:53:48 48° 216° (SW) 554 -3.5 -18.5°
Maximum altitude 10:54:37 79° 139° (SE) 432 -3.7 -18.3°
Drops below altitude 10° 10:57:59 10° 53° (NE) 1,505 -0.2 -17.6°
Sets 11:00:05 0° 52° (NE) 2,371 0.9 -17.2°
